K5VP Weather Reports


Display with metric or nautical units.
time (UTC)temp
F
wind
direction
speed
MPH
gust
MPH
rain 1hr
in
rain 24hr
in
rain mn
in
humidity
%
barometer
mb
20260906012518 83 317 0.0 0.0 0.00 0.00 0.00 80 1011.6
20260906012019 83 317 0.0 0.0 0.00 0.00 0.00 79 1011.5
20260906011507 83 317 0.0 0.0 0.00 0.00 0.00 77 1011.5
20260906010951 83 317 0.0 0.0 0.00 0.00 0.00 77 1011.5
20260906010451 83 317 0.0 0.0 0.00 0.00 0.00 78 1011.4
20260906005953 83 317 0.0 0.0 0.00 0.00 0.00 80 1011.4
20260906005455 83 317 0.0 0.0 0.00 0.00 0.00 79 1011.3
20260906004944 84 317 0.0 0.0 0.00 0.00 0.00 78 1011.3
20260906004440 84 317 0.0 0.0 0.00 0.00 0.00 78 1011.2
20260906003927 84 317 0.0 0.0 0.00 0.00 0.00 76 1011.2
20260906003410 85 317 0.0 0.0 0.00 0.00 0.00 74 1011.2
20260906002917 85 317 0.0 0.0 0.00 0.00 0.00 73 1011.2
20260906002416 85 317 0.0 0.0 0.00 0.00 0.00 72 1011.3
20260906001856 85 317 0.0 0.0 0.00 0.00 0.00 71 1011.4
20260906001354 86 317 0.0 0.0 0.00 0.00 0.00 70 1011.4
20260906000853 86 317 0.0 0.0 0.00 0.00 0.00 71 1011.4
20260906000351 87 317 0.0 0.0 0.00 0.00 0.00 72 1011.4
20260905235833 87 317 0.0 0.0 0.00 0.00 0.00 71 1011.4
20260905235340 87 317 0.0 0.0 0.00 0.00 0.00 72 1011.3
20260905234836 88 319 0.0 0.0 0.00 0.00 0.00 71 1011.3
20260905234334 88 319 0.0 0.0 0.00 0.00 0.00 69 1011.3
20260905233829 89 319 0.0 0.0 0.00 0.00 0.00 69 1011.4
20260905233331 89 319 0.0 0.0 0.00 0.00 0.00 69 1011.4
20260905232835 90 319 0.0 0.0 0.00 0.00 0.00 68 1011.5
20260905232339 90 319 0.0 0.0 0.00 0.00 0.00 67 1011.5
20260905231825 90 319 0.0 0.0 0.00 0.00 0.00 67 1011.3
20260905231310 91 319 0.0 0.0 0.00 0.00 0.00 66 1011.4
20260905230804 91 319 0.0 0.0 0.00 0.00 0.00 65 1011.4
20260905230253 91 319 0.0 0.0 0.00 0.00 0.00 63 1011.4
20260905225742 92 319 0.0 0.0 0.00 0.00 0.00 63 1011.5
20260905225223 92 319 0.0 0.0 0.00 0.00 0.00 62 1011.4
20260905224707 93 319 0.0 0.0 0.00 0.00 0.00 61 1011.5
20260905224211 93 319 0.0 0.0 0.00 0.00 0.00 59 1011.5
20260905223649 94 319 0.0 0.0 0.00 0.00 0.00 55 1011.5
20260905223138 95 319 0.0 0.0 0.00 0.00 0.00 54 1011.4
20260905222632 95 319 0.0 0.0 0.00 0.00 0.00 51 1011.4
20260905222113 95 319 0.0 0.0 0.00 0.00 0.00 53 1011.5
20260905221605 96 319 0.0 0.0 0.00 0.00 0.00 53 1011.5
20260905221058 97 319 0.0 0.0 0.00 0.00 0.00 50 1011.4
20260905220545 99 319 0.0 0.0 0.00 0.00 0.00 47 1011.5
20260905220024 101 319 0.0 0.0 0.00 0.00 0.00 45 1011.6
20260905215509 101 319 0.0 0.0 0.00 0.00 0.00 45 1011.7
20260905214958 100 319 0.0 0.0 0.00 0.00 0.00 48 1011.7
20260905214442 99 319 0.0 0.0 0.00 0.00 0.00 45 1011.7
20260905213924 99 319 0.0 0.0 0.00 0.00 0.00 48 1011.8
20260905213410 100 329 0.0 0.0 0.00 0.00 0.00 45 1011.8
20260905212851 99 330 0.0 0.0 0.00 0.00 0.00 47 1011.8
20260905212356 99 260 0.0 0.0 0.00 0.00 0.00 46 1011.8
20260905211848 99 238 0.0 0.0 0.00 0.00 0.00 48 1011.8
20260905211349 98 235 0.0 0.0 0.00 0.00 0.00 46 1011.8
20260905210854 98 235 0.0 0.0 0.00 0.00 0.00 47 1011.9
20260905210359 98 41 0.0 0.0 0.00 0.00 0.00 47 1011.9
20260905205902 98 329 0.0 0.0 0.00 0.00 0.00 47 1011.9
20260905205357 98 271 0.0 0.0 0.00 0.00 0.00 48 1012.0
20260905204900 98 276 0.0 0.0 0.00 0.00 0.00 47 1012.1
20260905204350 98 261 0.0 0.0 0.00 0.00 0.00 48 1012.1
20260905203848 98 238 0.0 0.0 0.00 0.00 0.00 45 1012.1
20260905203339 98 238 0.0 1.0 0.00 0.00 0.00 46 1012.2
20260905202837 97 250 0.0 0.0 0.00 0.00 0.00 47 1012.2
20260905202317 97 249 0.0 0.0 0.00 0.00 0.00 48 1012.3
20260905201812 97 42 0.0 0.0 0.00 0.00 0.00 47 1012.4
20260905201251 97 44 0.0 1.0 0.00 0.00 0.00 48 1012.5
20260905200729 97 111 0.0 1.0 0.00 0.00 0.00 49 1012.6
20260905200212 96 266 0.0 0.0 0.00 0.00 0.00 49 1012.7
20260905195655 96 277 0.0 0.0 0.00 0.00 0.00 50 1012.8
20260905195144 95 91 0.0 1.0 0.00 0.00 0.00 52 1012.8
20260905194634 95 260 0.0 0.0 0.00 0.00 0.00 52 1012.9
20260905194137 94 266 0.0 0.0 0.00 0.00 0.00 53 1012.9
20260905193637 93 266 0.0 0.0 0.00 0.00 0.00 54 1013.1
20260905193122 92 322 0.0 0.0 0.00 0.00 0.00 60 1013.1
20260905192625 91 50 0.0 0.0 0.00 0.00 0.00 66 1013.2
20260905192111 90 50 0.0 0.0 0.00 0.00 0.00 70 1013.4
20260905191618 90 50 0.0 0.0 0.00 0.00 0.00 70 1013.5
20260905191104 91 50 0.0 0.0 0.00 0.00 0.00 65 1013.6
20260905190558 92 62 0.0 1.0 0.00 0.00 0.00 63 1013.7
20260905190046 94 238 0.0 0.0 0.00 0.00 0.00 60 1013.6
20260905185538 95 245 0.0 0.0 0.00 0.00 0.00 55 1013.7
20260905185044 96 328 0.0 0.0 0.00 0.00 0.00 51 1013.7
20260905184541 97 78 0.0 0.0 0.00 0.00 0.00 52 1013.8
20260905184038 97 78 0.0 0.0 0.00 0.00 0.00 50 1013.8
20260905183528 96 226 0.0 0.0 0.00 0.00 0.00 50 1013.7
20260905183035 96 165 0.0 2.0 0.00 0.00 0.00 53 1013.8
20260905182531 95 62 0.0 0.0 0.00 0.00 0.00 54 1014.0
20260905182035 96 62 0.0 0.0 0.00 0.00 0.00 51 1014.0
20260905181523 96 115 0.0 0.0 0.00 0.00 0.00 51 1014.0
20260905181029 96 107 0.0 0.0 0.00 0.00 0.00 53 1013.9
20260905180518 96 51 0.0 0.0 0.00 0.00 0.00 54 1014.0
20260905180017 96 56 0.0 3.0 0.00 0.00 0.00 54 1014.1
20260905175508 96 51 0.0 0.0 0.00 0.00 0.00 51 1014.1
20260905175012 96 66 0.0 3.0 0.00 0.00 0.00 51 1014.1
20260905174455 96 98 0.0 0.0 0.00 0.00 0.00 54 1014.1
20260905173935 95 99 0.0 0.0 0.00 0.00 0.00 57 1014.1
20260905173427 95 99 0.0 0.0 0.00 0.00 0.00 54 1014.2
20260905172929 96 93 0.0 0.0 0.00 0.00 0.00 54 1014.2
20260905172416 96 301 0.0 0.0 0.00 0.00 0.00 55 1014.3
20260905171909 96 252 0.0 0.0 0.00 0.00 0.00 55 1014.3
20260905171409 95 217 0.0 0.0 0.00 0.00 0.00 56 1014.4
20260905170851 95 229 0.0 0.0 0.00 0.00 0.00 56 1014.5
20260905170358 95 109 0.0 2.0 0.00 0.00 0.00 56 1014.5
20260905165836 96 58 0.0 0.0 0.00 0.00 0.00 57 1014.6
20260905165325 96 104 0.0 0.0 0.00 0.00 0.00 57 1014.7
20260905164811 95 227 0.0 0.0 0.00 0.00 0.00 57 1014.7
20260905164318 95 231 0.0 0.0 0.00 0.00 0.00 59 1014.7
20260905163811 95 122 0.0 0.0 0.00 0.00 0.00 55 1014.8
20260905163257 94 306 0.0 0.0 0.00 0.00 0.00 57 1014.8
20260905162800 94 300 0.0 0.0 0.00 0.00 0.00 57 1014.8
20260905162253 94 250 0.0 1.0 0.00 0.00 0.00 58 1014.8
20260905161751 94 42 0.0 0.0 0.00 0.00 0.00 59 1014.9
20260905161255 93 41 0.0 0.0 0.00 0.00 0.00 60 1015.0
20260905160743 93 245 0.0 0.0 0.00 0.00 0.00 62 1015.0
20260905160227 93 248 0.0 0.0 0.00 0.00 0.00 63 1015.0
20260905155719 92 257 0.0 0.0 0.00 0.00 0.00 62 1015.0
20260905155203 92 251 0.0 0.0 0.00 0.00 0.00 64 1015.1
20260905154659 92 214 0.0 0.0 0.00 0.00 0.00 63 1015.1
20260905154200 91 282 0.0 0.0 0.00 0.00 0.00 63 1015.0
20260905153646 91 282 0.0 0.0 0.00 0.00 0.00 64 1015.2
20260905153128 90 289 0.0 0.0 0.00 0.00 0.00 67 1015.3
20260905152614 90 289 0.0 0.0 0.00 0.00 0.00 71 1015.3
20260905152103 89 129 0.0 0.0 0.00 0.00 0.00 70 1015.3
20260905151555 89 129 0.0 0.0 0.00 0.00 0.00 72 1015.3
20260905151059 89 129 0.0 0.0 0.00 0.00 0.00 72 1015.4
20260905150554 88 129 0.0 0.0 0.00 0.00 0.00 73 1015.4
20260905150043 88 129 0.0 0.0 0.00 0.00 0.00 74 1015.4
20260905145540 88 129 0.0 0.0 0.00 0.00 0.00 74 1015.5
20260905145043 87 129 0.0 0.0 0.00 0.00 0.00 76 1015.5
20260905144521 86 129 0.0 0.0 0.00 0.00 0.00 77 1015.4
20260905144028 86 129 0.0 0.0 0.00 0.00 0.00 79 1015.4
20260905143528 85 129 0.0 0.0 0.00 0.00 0.00 80 1015.3
20260905143028 84 129 0.0 0.0 0.00 0.00 0.00 82 1015.3
20260905142528 84 129 0.0 0.0 0.00 0.00 0.00 84 1015.3
20260905142012 83 129 0.0 0.0 0.00 0.00 0.00 84 1015.3
20260905141458 82 129 0.0 0.0 0.00 0.00 0.00 86 1015.3
20260905140942 82 129 0.0 0.0 0.00 0.00 0.00 88 1015.3
20260905140431 81 129 0.0 0.0 0.00 0.00 0.00 91 1015.3
20260905135912 80 129 0.0 0.0 0.00 0.00 0.00 93 1015.3
20260905135410 80 129 0.0 0.0 0.00 0.00 0.00 94 1015.3
20260905134913 79 129 0.0 0.0 0.00 0.00 0.00 95 1015.3
20260905134406 79 128 0.0 0.0 0.00 0.00 0.00 95 1015.3
20260905133848 79 127 0.0 0.0 0.00 0.00 0.00 95 1015.4
20260905133334 79 127 0.0 0.0 0.00 0.00 0.00 95 1015.4
20260905132819 79 127 0.0 0.0 0.00 0.00 0.00 95 1015.4
20260905132318 78 127 0.0 0.0 0.00 0.00 0.00 95 1015.3
20260905131821 78 127 0.0 0.0 0.00 0.00 0.00 95 1015.3
20260905131301 78 127 0.0 0.0 0.00 0.00 0.00 95 1015.3
20260905130740 78 127 0.0 0.0 0.00 0.00 0.00 95 1015.2
20260905130235 77 127 0.0 0.0 0.00 0.00 0.00 95 1015.2
20260905125734 77 127 0.0 0.0 0.00 0.00 0.00 95 1015.3
20260905125220 77 127 0.0 0.0 0.00 0.00 0.00 95 1015.2
20260905124716 77 127 0.0 0.0 0.00 0.00 0.00 95 1015.1
20260905124213 76 127 0.0 0.0 0.00 0.00 0.00 95 1015.1
20260905123712 76 127 0.0 0.0 0.00 0.00 0.00 95 1015.1
20260905123201 75 127 0.0 0.0 0.00 0.00 0.00 95 1015.0
20260905122647 75 127 0.0 0.0 0.00 0.00 0.00 95 1014.9
20260905122136 75 127 0.0 0.0 0.00 0.00 0.00 95 1014.8
20260905121642 75 127 0.0 0.0 0.00 0.00 0.00 95 1014.8
20260905121137 75 127 0.0 0.0 0.00 0.00 0.00 95 1014.7
20260905120630 75 127 0.0 0.0 0.00 0.00 0.00 95 1014.8
20260905120137 75 127 0.0 0.0 0.00 0.00 0.00 95 1014.8
20260905115627 75 127 0.0 0.0 0.00 0.00 0.00 95 1014.7
20260905115112 75 127 0.0 0.0 0.00 0.00 0.00 95 1014.7
20260905114603 75 127 0.0 0.0 0.00 0.00 0.00 95 1014.8
20260905114045 75 127 0.0 0.0 0.00 0.00 0.00 95 1014.7
20260905113550 75 127 0.0 0.0 0.00 0.00 0.00 95 1014.7
20260905113056 75 127 0.0 0.0 0.00 0.00 0.00 95 1014.7
20260905112544 75 127 0.0 0.0 0.00 0.00 0.00 95 1014.6
20260905112029 75 127 0.0 0.0 0.00 0.00 0.00 95 1014.5
20260905111524 75 127 0.0 0.0 0.00 0.00 0.00 95 1014.5
20260905111026 75 127 0.0 0.0 0.00 0.00 0.00 95 1014.3
20260905110508 75 127 0.0 0.0 0.00 0.00 0.00 95 1014.3
20260905105953 75 127 0.0 0.0 0.00 0.00 0.00 95 1014.3
20260905105446 75 127 0.0 0.0 0.00 0.00 0.00 95 1014.3
20260905104949 75 127 0.0 0.0 0.00 0.00 0.00 95 1014.2
20260905104442 75 127 0.0 0.0 0.00 0.00 0.00 95 1014.2
20260905103938 75 127 0.0 0.0 0.00 0.00 0.00 95 1014.2
20260905103440 75 127 0.0 0.0 0.00 0.00 0.00 95 1014.2
20260905102932 75 127 0.0 0.0 0.00 0.00 0.00 95 1014.3
20260905102430 75 127 0.0 0.0 0.00 0.00 0.00 95 1014.3
20260905101916 75 127 0.0 0.0 0.00 0.00 0.00 95 1014.3
20260905101354 76 127 0.0 0.0 0.00 0.00 0.00 95 1014.2
20260905100851 76 127 0.0 0.0 0.00 0.00 0.00 95 1014.1
20260905100337 76 127 0.0 0.0 0.00 0.00 0.00 95 1014.1
20260905095841 76 127 0.0 0.0 0.00 0.00 0.00 95 1014.1
20260905095325 76 127 0.0 0.0 0.00 0.00 0.00 95 1014.0
20260905094809 76 127 0.0 0.0 0.00 0.00 0.00 95 1014.1
20260905094309 76 127 0.0 0.0 0.00 0.00 0.00 95 1014.1
20260905093758 76 127 0.0 0.0 0.00 0.00 0.00 95 1014.2
20260905093248 76 127 0.0 0.0 0.00 0.00 0.00 95 1014.1
20260905092740 76 127 0.0 0.0 0.00 0.00 0.00 95 1014.1
20260905092235 76 127 0.0 0.0 0.00 0.00 0.00 95 1014.1
20260905091723 76 127 0.0 0.0 0.00 0.00 0.00 95 1014.1
20260905091221 76 127 0.0 0.0 0.00 0.00 0.00 95 1014.1
20260905090723 76 127 0.0 0.0 0.00 0.00 0.00 95 1014.2
20260905090226 76 127 0.0 0.0 0.00 0.00 0.00 95 1014.2
20260905085708 76 127 0.0 0.0 0.00 0.00 0.00 95 1014.2
20260905085151 76 127 0.0 0.0 0.00 0.00 0.00 95 1014.2
20260905084648 76 127 0.0 0.0 0.00 0.00 0.00 95 1014.1
20260905084129 76 127 0.0 0.0 0.00 0.00 0.00 94 1014.1
20260905083616 76 127 0.0 0.0 0.00 0.00 0.00 95 1014.1
20260905083120 76 127 0.0 0.0 0.00 0.00 0.00 94 1014.1
20260905082608 76 127 0.0 0.0 0.00 0.00 0.00 94 1014.0
20260905082100 76 127 0.0 0.0 0.00 0.00 0.00 94 1014.1
20260905081546 76 127 0.0 0.0 0.00 0.00 0.00 94 1014.1
20260905081031 77 127 0.0 0.0 0.00 0.00 0.00 94 1014.1
20260905080349 77 127 0.0 0.0 0.00 0.00 0.00 94 1014.1
20260905075847 77 127 0.0 0.0 0.00 0.00 0.00 94 1014.2
20260905075343 77 127 0.0 0.0 0.00 0.00 0.00 94 1014.1
20260905074842 77 127 0.0 0.0 0.00 0.00 0.00 94 1014.0
20260905074325 77 127 0.0 0.0 0.00 0.00 0.00 94 1014.0
20260905073826 77 127 0.0 0.0 0.00 0.00 0.00 94 1014.0
20260905073315 77 127 0.0 0.0 0.00 0.00 0.00 94 1014.0
20260905072821 77 127 0.0 0.0 0.00 0.00 0.00 94 1014.1
20260905072326 77 127 0.0 0.0 0.00 0.00 0.00 94 1014.1
20260905071807 77 127 0.0 0.0 0.00 0.00 0.00 94 1014.0
20260905071252 77 127 0.0 0.0 0.00 0.00 0.00 94 1014.1
20260905070758 77 127 0.0 0.0 0.00 0.00 0.00 94 1014.0
20260905070249 77 127 0.0 0.0 0.00 0.00 0.00 94 1014.0
20260905065734 77 127 0.0 0.0 0.00 0.00 0.00 94 1014.0
20260905065224 77 127 0.0 0.0 0.00 0.00 0.00 94 1014.1
20260905064721 77 127 0.0 0.0 0.00 0.00 0.00 94 1014.2
20260905064159 77 127 0.0 0.0 0.00 0.00 0.00 94 1014.2
20260905063647 77 127 0.0 0.0 0.00 0.00 0.00 94 1014.2
20260905063133 77 127 0.0 0.0 0.00 0.00 0.00 94 1014.2
20260905062621 77 127 0.0 0.0 0.00 0.00 0.00 94 1014.3
20260905062118 77 127 0.0 0.0 0.00 0.00 0.00 94 1014.2
20260905061605 77 127 0.0 0.0 0.00 0.00 0.00 94 1014.2
20260905061055 77 127 0.0 0.0 0.00 0.00 0.00 94 1014.1
20260905060553 77 127 0.0 0.0 0.00 0.00 0.00 94 1014.2
20260905060058 77 127 0.0 0.0 0.00 0.00 0.00 94 1014.2
20260905055539 77 127 0.0 0.0 0.00 0.00 0.00 94 1014.2
20260905055025 77 127 0.0 0.0 0.00 0.00 0.00 93 1014.2
20260905054531 77 127 0.0 0.0 0.00 0.00 0.00 93 1014.2
20260905054014 78 127 0.0 0.0 0.00 0.00 0.00 93 1014.3
20260905053504 78 127 0.0 0.0 0.00 0.00 0.00 93 1014.3
20260905053009 78 127 0.0 0.0 0.00 0.00 0.00 93 1014.3
20260905052501 78 127 0.0 0.0 0.00 0.00 0.00 93 1014.3
20260905051947 78 127 0.0 0.0 0.00 0.00 0.00 93 1014.4
20260905051448 78 127 0.0 0.0 0.00 0.00 0.00 93 1014.4
20260905050949 78 127 0.0 0.0 0.00 0.00 0.00 93 1014.3
20260905050436 78 127 0.0 0.0 0.00 0.00 0.00 93 1014.4
20260905045930 78 127 0.0 0.0 0.00 0.00 0.00 93 1014.6
20260905045426 78 127 0.0 0.0 0.00 0.00 0.00 93 1014.6
20260905044925 78 127 0.0 0.0 0.00 0.00 0.00 93 1014.6
20260905044421 79 127 0.0 0.0 0.00 0.00 0.00 92 1014.6
20260905043919 79 127 0.0 0.0 0.00 0.00 0.00 93 1014.6
20260905043404 79 127 0.0 0.0 0.00 0.00 0.00 92 1014.5
20260905042848 79 127 0.0 0.0 0.00 0.00 0.00 92 1014.5
20260905042332 79 127 0.0 0.0 0.00 0.00 0.00 92 1014.5
20260905041836 79 127 0.0 0.0 0.00 0.00 0.00 92 1014.5
20260905041340 79 127 0.0 0.0 0.00 0.00 0.00 92 1014.6
20260905040829 79 127 0.0 0.0 0.00 0.00 0.00 92 1014.6
20260905040311 79 127 0.0 0.0 0.00 0.00 0.00 91 1014.7
20260905035806 79 127 0.0 0.0 0.00 0.00 0.00 91 1014.9
20260905035256 79 127 0.0 0.0 0.00 0.00 0.00 91 1014.9
20260905034753 79 127 0.0 0.0 0.00 0.00 0.00 91 1014.8
20260905034300 79 127 0.0 0.0 0.00 0.00 0.00 91 1014.9
20260905033740 79 127 0.0 0.0 0.00 0.00 0.00 90 1014.9
20260905033240 79 127 0.0 0.0 0.00 0.00 0.00 90 1014.9
20260905032739 79 127 0.0 0.0 0.00 0.00 0.00 90 1014.9
20260905032230 80 127 0.0 0.0 0.00 0.00 0.00 90 1014.9
20260905031730 80 127 0.0 0.0 0.00 0.00 0.00 90 1014.9
20260905031225 79 71 0.0 0.0 0.00 0.00 0.00 90 1014.8
20260905030714 79 71 0.0 0.0 0.00 0.00 0.00 89 1014.8
20260905030208 79 71 0.0 0.0 0.00 0.00 0.00 89 1014.8
20260905025656 80 71 0.0 0.0 0.00 0.00 0.00 88 1014.8
20260905025200 80 71 0.0 0.0 0.00 0.00 0.00 88 1014.8
20260905024706 80 71 0.0 0.0 0.00 0.00 0.00 88 1014.7
20260905024211 80 72 0.0 0.0 0.00 0.00 0.00 88 1014.6
20260905023704 80 71 0.0 0.0 0.00 0.00 0.00 88 1014.6
20260905023144 81 71 0.0 0.0 0.00 0.00 0.00 87 1014.6
20260905022644 81 72 0.0 0.0 0.00 0.00 0.00 87 1014.6
20260905022124 81 71 0.0 0.0 0.00 0.00 0.00 86 1014.6
20260905021619 81 71 0.0 0.0 0.00 0.00 0.00 86 1014.6
20260905021106 81 71 0.0 0.0 0.00 0.00 0.00 86 1014.6
20260905020612 82 71 0.0 0.0 0.00 0.00 0.00 85 1014.5
20260905020120 82 72 0.0 0.0 0.00 0.00 0.00 85 1014.3
20260905015616 82 71 0.0 0.0 0.00 0.00 0.00 85 1014.4
20260905015058 82 71 0.0 0.0 0.00 0.00 0.00 85 1014.4
20260905014551 82 72 0.0 0.0 0.00 0.00 0.00 85 1014.4
20260905014041 82 71 0.0 0.0 0.00 0.00 0.00 85 1014.4
20260905013542 82 71 0.0 0.0 0.00 0.00 0.00 85 1014.4
20260905013033 82 71 0.0 0.0 0.00 0.00 0.00 85 1014.4